H1 CPF 2 NER 2024 9 6 9 250 01 glonass139 H2 1808601 9139 43687 2024 9 6 0 0 0 2024 9 9 23 45 0 900 1 1 0 0 0 1 H9 10 0 60559 0.00000 0 10425377.954 20302168.303 -11360764.263 10 0 60559 900.00000 0 9433662.114 19079938.769 -14028003.342 10 0 60559 1800.00000 0 8128917.171 17718907.618 -16422225.423 10 0 60559 2700.00000 0 6516719.664 16280466.718 -18496782.788 10 0 60559 3600.00000 0 4615375.447 14825636.009 -20211250.980 10 0 60559 4500.00000 0 2455421.966 13412492.920 -21532222.905 10 0 60559 5400.00000 0 78614.728 12093745.168 -22433964.616 10 0 60559 6300.00000 0 -2463560.749 10914549.473 -22898919.737 10 0 60559 7200.00000 0 -5111790.117 9910668.224 -22918052.632 10 0 60559 8100.00000 0 -7801165.656 9107041.511 -22491023.691 10 0 60559 9000.00000 0 -10463663.084 8516834.274 -21626193.433 10 0 60559 9900.00000 0 -13030756.525 8140998.006 -20340455.560 10 0 60559 10800.00000 0 -15436062.731 7968364.565 -18658902.454 10 0 60559 11700.00000 0 -17617904.369 7976267.051 -16614329.897 10 0 60559 12600.00000 0 -19521685.584 8131660.320 -14246590.998 10 0 60559 13500.00000 0 -21101981.039 8392692.530 -11601812.346 10 0 60559 14400.00000 0 -22324251.714 8710660.047 -8731488.090 10 0 60559 15300.00000 0 -23166116.527 9032261.803 -5691470.226 10 0 60559 16200.00000 0 -23618127.677 9302056.678 -2540875.359 10 0 60559 17100.00000 0 -23684018.568 9465018.969 659070.114 10 0 60559 18000.00000 0 -23380415.472 9469083.150 3846223.260 10 0 60559 18900.00000 0 -22736026.642 9267569.767 6958732.608 10 0 60559 19800.00000 0 -21790344.503 8821389.715 9936237.099 10 0 60559 20700.00000 0 -20591916.790 8100933.694 12721032.594 10 0 60559 21600.00000 0 -19196260.291 7087567.248 15259183.579 10 0 60559 22500.00000 0 -17663505.381 5774668.461 17501559.081 10 0 60559 23400.00000 0 -16055870.302 4168164.680 19404773.570 10 0 60559 24300.00000 0 -14435070.720 2286545.531 20932015.692 10 0 60559 25200.00000 0 -12859772.212 160351.137 22053750.057 10 0 60559 26100.00000 0 -11383191.173 -2168843.881 22748279.650 10 0 60559 27000.00000 0 -10050943.104 -4649909.509 23002159.099 10 0 60559 27900.00000 0 -8899226.753 -7224042.471 22810451.578 10 0 60559 28800.00000 0 -7953418.682 -9826974.867 22176824.862 10 0 60559 29700.00000 0 -7227135.875 -12391419.447 21113484.668 10 0 60559 30600.00000 0 -6721804.755 -14849651.829 19640946.198 10 0 60559 31500.00000 0 -6426754.239 -17136124.098 17787647.495 10 0 60559 32400.00000 0 -6319828.815 -19190002.585 15589411.022 10 0 60559 33300.00000 0 -6368496.165 -20957525.349 13088762.571 10 0 60559 34200.00000 0 -6531403.173 -22394081.735 10334119.383 10 0 60559 35100.00000 0 -6760315.343 -23465927.491 7378861.987 10 0 60559 36000.00000 0 -7002358.266 -24151463.555 4280306.670 10 0 60559 36900.00000 0 -7202466.720 -24442024.488 1098597.893 10 0 60559 37800.00000 0 -7305937.794 -24342142.790 -2104458.233 10 0 60559 38700.00000 0 -7260979.553 -23869277.271 -5266596.684 10 0 60559 39600.00000 0 -7021146.470 -23053016.131 -8326308.671 10 0 60559 40500.00000 0 -6547557.280 -21933787.782 -11224044.899 10 0 60559 41400.00000 0 -5810799.819 -20561133.304 -13903382.700 10 0 60559 42300.00000 0 -4792440.484 -18991613.196 -16312133.327 10 0 60559 43200.00000 0 -3486072.640 -17286436.712 -18403367.007 10 0 60559 44100.00000 0 -1897857.808 -15508913.856 -20136334.995 10 0 60559 45000.00000 0 -46535.031 -13721837.661 -21477270.011 10 0 60559 45900.00000 0 2037103.598 -11984907.241 -22400049.094 10 0 60559 46800.00000 0 4311250.638 -10352300.216 -22886705.674 10 0 60559 47700.00000 0 6724591.775 -8870496.642 -22927780.827 10 0 60559 48600.00000 0 9218222.754 -7576445.718 -22522506.908 10 0 60559 49500.00000 0 11727895.150 -6496151.831 -21678820.102 10 0 60559 50400.00000 0 14186497.376 -5643738.647 -20413201.851 10 0 60559 51300.00000 0 16526667.483 -5021029.554 -18750352.468 10 0 60559 52200.00000 0 18683428.672 -4617660.846 -16722703.550 10 0 60559 53100.00000 0 20596737.407 -4411721.423 -14369779.049 10 0 60559 54000.00000 0 22213837.799 -4370890.453 -11737417.837 10 0 60559 54900.00000 0 23491324.047 -4454023.395 -8876873.377 10 0 60559 55800.00000 0 24396825.125 -4613117.804 -5843808.653 10 0 60559 56700.00000 0 24910241.854 -4795574.367 -2697206.549 10 0 60559 57600.00000 0 25024485.564 -4946656.286 501782.456 10 0 60559 58500.00000 0 24745688.516 -5012041.950 3691032.186 10 0 60559 59400.00000 0 24092878.639 -4940362.119 6808648.578 10 0 60559 60300.00000 0 23097133.597 -4685613.919 9794169.616 10 0 60559 61200.00000 0 21800250.956 -4209349.373 12589733.964 10 0 60559 62100.00000 0 20252991.300 -3482546.109 15141195.884 10 0 60559 63000.00000 0 18512968.631 -2487081.408 17399165.368 10 0 60559 63900.00000 0 16642276.688 -1216747.656 19319954.146 10 0 60559 64800.00000 0 14704950.362 322233.552 20866410.343 10 0 60559 65700.00000 0 12764367.591 2111220.566 22008626.830 10 0 60559 66600.00000 0 10880699.284 4119684.295 22724510.747 10 0 60559 67500.00000 0 9108512.292 6306243.090 23000204.296 10 0 60559 68400.00000 0 7494623.885 8620158.065 22830349.447 10 0 60559 69300.00000 0 6076295.729 11003228.209 22218191.944 10 0 60559 70200.00000 0 4879841.238 13392008.241 21175522.636 10 0 60559 71100.00000 0 3919703.272 15720258.862 19722456.884 10 0 60559 72000.00000 0 3198039.873 17921529.207 17887055.552 10 0 60559 72900.00000 0 2704834.838 19931765.623 15704793.843 10 0 60559 73800.00000 0 2418528.355 21691839.277 13217886.928 10 0 60559 74700.00000 0 2307141.302 23149887.967 10474484.166 10 0 60559 75600.00000 0 2329846.203 24263374.626 7527746.232 10 0 60559 76500.00000 0 2438918.938 25000776.293 4434822.017 10 0 60559 77400.00000 0 2581989.045 25342832.257 1255744.452 10 0 60559 78300.00000 0 2704493.497 25283298.209 -1947733.647 10 0 60559 79200.00000 0 2752229.817 24829173.761 -5113341.107 10 0 60559 80100.00000 0 2673899.788 24000392.783 -8179503.498 10 0 60559 81000.00000 0 2423534.954 22828988.676 -11086547.539 10 0 60559 81900.00000 0 1962699.900 21357769.017 -13777870.555 10 0 60559 82800.00000 0 1262378.398 19638554.862 -16201051.240 10 0 60559 83700.00000 0 304460.909 17730058.602 -18308879.244 10 0 60559 84600.00000 0 -917231.225 15695489.580 -20060282.735 10 0 60559 85500.00000 0 -2396429.894 13599988.313 -21421135.206 10 0 60560 0.00000 0 -4114435.859 11507997.478 -22364925.332 10 0 60560 900.00000 0 -6040667.653 9480679.090 -22873277.003 10 0 60560 1800.00000 0 -8133719.553 7573489.115 -22936308.119 10 0 60560 2700.00000 0 -10342888.194 5834007.361 -22552822.912 10 0 60560 3600.00000 0 -12610102.293 4300116.010 -21730332.798 10 0 60560 4500.00000 0 -14872175.918 2998601.382 -20484906.139 10 0 60560 5400.00000 0 -17063291.068 1944236.726 -18840849.966 10 0 60560 6300.00000 0 -19117605.717 1139383.242 -16830230.114 10 0 60560 7200.00000 0 -20971878.136 574124.533 -14492239.478 10 0 60560 8100.00000 0 -22567997.607 226927.093 -11872427.065 10 0 60560 9000.00000 0 -23855315.584 65797.145 -9021803.328 10 0 60560 9900.00000 0 -24792679.796 49883.224 -5995839.804 10 0 60560 10800.00000 0 -25350086.419 131455.031 -2853383.148 10 0 60560 11700.00000 0 -25509881.627 258173.387 344494.630 10 0 60560 12600.00000 0 -25267462.946 375553.950 3535686.690 10 0 60560 13500.00000 0 -24631452.002 429519.446 6658258.979 10 0 60560 14400.00000 0 -23623332.540 368931.810 9651651.127 10 0 60560 15300.00000 0 -22276569.969 147996.767 12457847.176 10 0 60560 16200.00000 0 -20635250.338 -271560.771 15022493.652 10 0 60560 17100.00000 0 -18752296.405 -918642.218 17295943.847 10 0 60560 18000.00000 0 -16687335.811 -1811319.704 19234208.876 10 0 60560 18900.00000 0 -14504310.340 -2955840.452 20799798.156 10 0 60560 19800.00000 0 -12268925.509 -4346133.038 21962434.292 10 0 60560 20700.00000 0 -10046045.901 -5963836.564 22699629.664 10 0 60560 21600.00000 0 -7897143.432 -7778852.246 22997114.729 10 0 60560 22500.00000 0 -5877903.246 -9750395.446 22849110.543 10 0 60560 23400.00000 0 -4036085.294 -11828505.672 22258440.734 10 0 60560 24300.00000 0 -2409728.993 -13955953.236 21236480.839 10 0 60560 25200.00000 0 -1025774.350 -16070464.977 19802945.604 10 0 60560 26100.00000 0 100844.096 -18107178.025 17985517.626 10 0 60560 27000.00000 0 967593.533 -20001221.000 15819323.439 10 0 60560 27900.00000 0 1584213.245 -21690316.272 13346265.909 10 0 60560 28800.00000 0 1972064.714 -23117295.523 10614224.540 10 0 60560 29700.00000 0 2162988.733 -24232423.883 7676137.953 10 0 60560 30600.00000 0 2197717.464 -24995435.271 4588985.230 10 0 60560 31500.00000 0 2123908.284 -25377193.120 1412685.217 10 0 60560 32400.00000 0 1993882.388 -25360905.912 -1791065.251 10 0 60560 33300.00000 0 1862164.029 -24942845.308 -4959991.623 10 0 60560 34200.00000 0 1782925.021 -24132535.477 -8032456.660 10 0 60560 35100.00000 0 1807443.574 -22952404.426 -10948665.961 10 0 60560 36000.00000 0 1981686.201 -21436910.943 -13651839.707 10 0 60560 36900.00000 0 2344116.495 -19631183.039 -16089326.825 10 0 60560 37800.00000 0 2923825.051 -17589224.560 -18213639.042 10 0 60560 38700.00000 0 3739061.269 -15371764.982 -19983383.860 10 0 60560 39600.00000 0 4796230.690 -13043842.598 -21364077.647 10 0 60560 40500.00000 0 6089401.704 -10672222.504 -22328822.564 10 0 60560 41400.00000 0 7600343.827 -8322757.677 -22858833.888 10 0 60560 42300.00000 0 9299097.092 -6057803.744 -22943807.357 10 0 60560 43200.00000 0 11145049.569 -3933795.561 -22582119.428 10 0 60560 44100.00000 0 13088478.450 -1999086.656 -21780856.644 10 0 60560 45000.00000 0 15072490.460 -292141.425 -20555673.758 10 0 60560 45900.00000 0 17035280.396 1159845.189 -18930483.567 10 0 60560 46800.00000 0 18912613.169 2341843.933 -16936984.785 10 0 60560 47700.00000 0 20640425.101 3251367.316 -14614037.456 10 0 60560 48600.00000 0 22157435.272 3898311.501 -12006898.506 10 0 60560 49500.00000 0 23407657.209 4304272.631 -9166332.742 10 0 60560 50400.00000 0 24342705.450 4501368.365 -6147617.229 10 0 60560 51300.00000 0 24923800.252 4530616.316 -3009459.068 10 0 60560 52200.00000 0 25123386.567 4439939.690 187151.733 10 0 60560 53100.00000 0 24926299.784 4281886.017 3380131.291 10 0 60560 54000.00000 0 24330429.977 4111156.691 6507509.127 10 0 60560 54900.00000 0 23346857.599 3982052.763 9508629.914 10 0 60560 55800.00000 0 21999455.772 3945945.484 12325326.203 10 0 60560 56700.00000 0 20323976.648 4048878.720 14903039.580 10 0 60560 57600.00000 0 18366660.671 4329404.352 17191869.054 10 0 60560 58500.00000 0 16182427.212 4816741.714 19147527.136 10 0 60560 59400.00000 0 13832722.100 5529338.233 20732186.164 10 0 60560 60300.00000 0 11383111.279 6473891.602 21915199.686 10 0 60560 61200.00000 0 8900719.984 7644874.505 22673686.135 10 0 60560 62100.00000 0 6451622.716 9024582.172 22992964.614 10 0 60560 63000.00000 0 4098290.986 10583701.441 22866835.221 10 0 60560 63900.00000 0 1897203.269 12282378.624 22297698.978 10 0 60560 64800.00000 0 -103285.218 14071742.958 21296515.160 10 0 60560 65700.00000 0 -1864725.911 15895823.679 19882596.512 10 0 60560 66600.00000 0 -3359940.586 17693782.376 18083245.556 10 0 60560 67500.00000 0 -4573909.571 19402369.035 15933238.005 10 0 60560 68400.00000 0 -5504148.146 20958500.580 13474161.957 10 0 60560 69300.00000 0 -6160555.785 22301855.101 10753624.389 10 0 60560 70200.00000 0 -6564744.737 23377373.727 7824339.027 10 0 60560 71100.00000 0 -6748876.136 24137565.397 4743112.214 10 0 60560 72000.00000 0 -6754052.573 24544517.342 1569745.718 10 0 60560 72900.00000 0 -6628334.907 24571526.001 -1634122.583 10 0 60560 73800.00000 0 -6424467.209 24204278.587 -4806217.673 10 0 60560 74700.00000 0 -6197406.457 23441534.212 -7884842.302 10 0 60560 75600.00000 0 -6001762.150 22295274.450 -10810083.556 10 0 60560 76500.00000 0 -5889255.182 20790315.606 -13524986.835 10 0 60560 77400.00000 0 -5906304.744 18963397.803 -15976673.395 10 0 60560 78300.00000 0 -6091846.695 16861788.186 -18117378.836 10 0 60560 79200.00000 0 -6475477.166 14541456.237 -19905391.506 10 0 60560 80100.00000 0 -7076001.282 12064897.318 -21305871.870 10 0 60560 81000.00000 0 -7900449.656 9498695.454 -22291536.456 10 0 60560 81900.00000 0 -8943605.406 6910927.319 -22843192.768 10 0 60560 82800.00000 0 -10188062.664 4368515.998 -22950114.643 10 0 60560 83700.00000 0 -11604814.938 1934645.056 -22610250.789 10 0 60560 84600.00000 0 -13154349.210 -333659.279 -21830262.541 10 0 60560 85500.00000 0 -14788200.092 -2387677.233 -20625390.296 10 0 60561 0.00000 0 -16450898.770 -4188786.695 -19019151.637 10 0 60561 900.00000 0 -18082235.678 -5709823.585 -17042876.320 10 0 60561 1800.00000 0 -19619739.448 -6935953.457 -14735089.792 10 0 60561 2700.00000 0 -21001270.643 -7865022.672 -12140754.731 10 0 60561 3600.00000 0 -22167618.781 -8507373.847 -9310387.917 10 0 60561 4500.00000 0 -23064994.069 -8885136.375 -6299069.428 10 0 60561 5400.00000 0 -23647308.798 -9031023.832 -3165364.190 10 0 60561 6300.00000 0 -23878152.482 -8986690.967 29822.481 10 0 60561 7200.00000 0 -23732377.860 -8800721.478 3224432.380 10 0 60561 8100.00000 0 -23197231.477 -8526333.107 6356461.352 10 0 60561 9000.00000 0 -22272981.882 -8218898.232 9365161.857 10 0 60561 9900.00000 0 -20973019.635 -7933385.507 12192217.650 10 0 60561 10800.00000 0 -19323425.570 -7721830.992 14782867.962 10 0 60561 11700.00000 0 -17362025.791 -7630945.553 17086959.937 10 0 60561 12600.00000 0 -15136973.194 -7699959.114 19059909.650 10 0 60561 13500.00000 0 -12704914.625 -7958792.160 20663554.202 10 0 60561 14400.00000 0 -10128819.606 -8426630.900 21866879.570 10 0 60561 15300.00000 0 -7475560.169 -9110965.626 22646611.321 10 0 60561 16200.00000 0 -4813341.196 -10007132.478 22987657.893 10 0 60561 17100.00000 0 -2209086.467 -11098378.073 22883398.720 10 0 60561 18000.00000 0 274112.717 -12356444.907 22335812.154 10 0 60561 18900.00000 0 2579382.199 -13742654.029 21355440.822 10 0 60561 19800.00000 0 4658185.591 -15209441.038 19961194.768 10 0 60561 20700.00000 0 6472094.154 -16702282.630 18179995.449 10 0 60561 21600.00000 0 7994133.550 -18161934.666 16046266.469 10 0 60561 22500.00000 0 9209652.216 -19526889.493 13601279.574 10 0 60561 23400.00000 0 10116675.619 -20735950.696 10892367.319 10 0 60561 24300.00000 0 10725731.903 -21730818.089 7972016.342 10 0 60561 25200.00000 0 11059156.283 -22458574.666 4896857.779 10 0 60561 26100.00000 0 11149903.390 -22873970.753 1726573.647 10 0 60561 27000.00000 0 11039917.538 -22941408.559 -1477259.988 10 0 60561 27900.00000 0 10778129.735 -22636542.425 -4652370.588 10 0 60561 28800.00000 0 10418166.268 -21947425.932 -7737003.870 10 0 60561 29700.00000 0 10015866.241 -20875155.939 -10671131.374 10 0 60561 30600.00000 0 9626713.811 -19433984.782 -13397626.620 10 0 60561 31500.00000 0 9303294.735 -17650894.370 -15863385.972 10 0 60561 32400.00000 0 9092885.976 -15564648.748 -18020371.506 10 0 60561 33300.00000 0 9035281.534 -13224363.840 -19826554.763 10 0 60561 34200.00000 0 9160947.633 -10687653.589 -21246742.342 10 0 60561 35100.00000 0 9489586.381 -8018429.657 -22253266.783 10 0 60561 36000.00000 0 10029169.550 -5284446.409 -22826529.035 10 0 60561 36900.00000 0 10775484.081 -2554693.674 -22955381.806 10 0 60561 37800.00000 0 11712209.132 103253.984 -22637346.368 10 0 60561 38700.00000 0 12811521.850 2625821.044 -21878658.716 10 0 60561 39600.00000 0 14035206.550 4955840.325 -20694144.357 10 0 60561 40500.00000 0 15336220.649 7044687.808 -19106924.393 10 0 60561 41400.00000 0 16660651.246 8854054.670 -17147958.881 10 0 60561 42300.00000 0 17949979.700 10357283.569 -14855436.704 10 0 60561 43200.00000 0 19143558.439 11540214.697 -12274024.208 10 0 60561 44100.00000 0 20181195.299 12401507.910 -9453987.694 10 0 60561 45000.00000 0 21005736.079 12952429.295 -6450207.463 10 0 60561 45900.00000 0 21565536.221 13216113.265 -3321103.194 10 0 60561 46800.00000 0 21816717.280 13226333.299 -127492.260 10 0 60561 47700.00000 0 21725113.077 13025835.146 3068596.160 10 0 60561 48600.00000 0 21267823.771 12664304.524 6205127.557 10 0 60561 49500.00000 0 20434312.721 12196056.565 9221265.379 10 0 60561 50400.00000 0 19227000.388 11677545.544 12058547.569 10 0 60561 51300.00000 0 17661330.769 11164800.599 14662013.732 10 0 60561 52200.00000 0 15765307.826 10710895.772 16981261.560 10 0 60561 53100.00000 0 13578521.451 10363560.784 18971412.797 10 0 60561 54000.00000 0 11150703.488 10163032.649 20593971.083 10 0 60561 54900.00000 0 8539873.514 10140237.844 21817556.259 10 0 60561 55800.00000 0 5810150.720 10315380.732 22618502.116 10 0 60561 56700.00000 0 3029321.660 10696996.974 22981307.130 10 0 60561 57600.00000 0 266263.315 11281511.344 22898930.372 10 0 60561 58500.00000 0 -2411673.262 12053318.609 22372927.375 10 0 60561 59400.00000 0 -4941211.982 12985384.536 21413423.500 10 0 60561 60300.00000 0 -7265529.470 14040342.758 20038924.989 10 0 60561 61200.00000 0 -9336364.319 15172042.704 18275970.686 10 0 60561 62100.00000 0 -11115771.544 16327485.035 16158630.111 10 0 60561 63000.00000 0 -12577450.192 17449064.812 13727856.341 10 0 60561 63900.00000 0 -13707589.383 18477029.399 11030704.925 10 0 60561 64800.00000 0 -14505197.764 19352048.750 8119432.657 10 0 60561 65700.00000 0 -14981902.696 20017790.460 5050492.602 10 0 60561 66600.00000 0 -15161227.499 20423391.120 1883444.104 10 0 60561 67500.00000 0 -15077377.062 20525719.356 -1320201.489 10 0 60561 68400.00000 0 -14773582.898 20291334.108 -4498177.004 10 0 60561 69300.00000 0 -14300077.566 19698054.202 -7588673.928 10 0 60561 70200.00000 0 -13711784.285 18736071.337 -10531550.934 10 0 60561 71100.00000 0 -13065819.935 17408557.816 -13269512.177 10 0 60561 72000.00000 0 -12418917.748 15731741.625 -15749231.412 10 0 60561 72900.00000 0 -11824879.578 13734444.044 -17922399.213 10 0 60561 73800.00000 0 -11332166.452 11457097.813 -19746672.044 10 0 60561 74700.00000 0 -10981730.256 8950285.871 -21186504.056 10 0 60561 75600.00000 0 -10805179.068 6272861.063 -22213844.913 10 0 60561 76500.00000 0 -10823354.414 3489724.883 -22808689.796 10 0 60561 77400.00000 0 -11045381.101 669357.708 -22959470.737 10 0 60561 78300.00000 0 -11468230.116 -2118796.588 -22663281.678 10 0 60561 79200.00000 0 -12076813.211 -4806982.766 -21925933.015 10 0 60561 80100.00000 0 -12844605.160 -7331712.681 -20761834.706 10 0 60561 81000.00000 0 -13734767.260 -9636162.955 -19193710.495 10 0 60561 81900.00000 0 -14701724.346 -11672292.393 -17252149.043 10 0 60561 82800.00000 0 -15693128.336 -13402591.592 -14975001.060 10 0 60561 83700.00000 0 -16652124.914 -14801392.741 -12406634.548 10 0 60561 84600.00000 0 -17519827.144 -15855686.279 -9597063.120 10 0 60561 85500.00000 0 -18237891.046 -16565411.831 -6600964.933 10 0 60562 0.00000 0 -18751083.881 -16943213.149 -3476612.251 10 0 60562 900.00000 0 -19009736.625 -17013669.476 -284731.408 10 0 60562 1800.00000 0 -18971976.251 -16812037.278 2912679.745 10 0 60562 2700.00000 0 -18605644.538 -16382557.849 6053558.966 10 0 60562 3600.00000 0 -17889821.886 -15776403.195 9076983.325 10 0 60562 4500.00000 0 -16815892.478 -15049348.253 11924347.589 10 0 60562 5400.00000 0 -15388106.214 -14259268.406 14540494.306 10 0 60562 6300.00000 0 -13623613.942 -13463568.040 16874774.167 10 0 60562 7200.00000 0 -11551974.591 -12716648.365 18882016.844 10 0 60562 8100.00000 0 -9214154.557 -12067520.558 20523394.520 10 0 60562 9000.00000 0 -6661060.573 -11557663.787 21767162.601 10 0 60562 9900.00000 0 -3951666.328 -11219217.195 22589264.451 10 0 60562 10800.00000 0 -1150809.502 -11073580.814 22973789.589 10 0 60562 11700.00000 0 1673250.772 -11130483.360 22913277.373 10 0 60562 12600.00000 0 4451416.404 -11387555.557 22408860.834 10 0 60562 13500.00000 0 7116367.485 -11830426.792 21470248.061 10 0 60562 14400.00000 0 9605107.369 -12433341.405 20115541.191 10 0 60562 15300.00000 0 11861331.675 -13160269.459 18370895.833 10 0 60562 16200.00000 0 13837524.238 -13966466.375 16270026.487 10 0 60562 17100.00000 0 15496693.889 -14800417.070 13853566.270 10 0 60562 18000.00000 0 16813680.396 -15606083.989 11168292.063 10 0 60562 18900.00000 0 17775975.413 -16325365.376 8266228.757 10 0 60562 19800.00000 0 18384024.185 -16900660.869 5203648.908 10 0 60562 20700.00000 0 18650995.199 -17277436.408 2039986.413 10 0 60562 21600.00000 0 18602027.248 -17406679.954 -1163315.147 10 0 60562 22500.00000 0 18272985.376 -17247143.529 -4343997.179 10 0 60562 23400.00000 0 17708777.998 -16767275.668 -7440200.228 10 0 60562 24300.00000 0 16961306.266 -15946761.099 -10391673.376 10 0 60562 25200.00000 0 16087132.558 -14777600.837 -13140954.570 10 0 60562 26100.00000 0 15144967.059 -13264685.246 -15634497.959 10 0 60562 27000.00000 0 14193079.293 -11425834.056 -17823725.384 10 0 60562 27900.00000 0 13286744.747 -9291299.920 -19665980.731 10 0 60562 28800.00000 0 12475835.217 -6902754.895 -21125367.867 10 0 60562 29700.00000 0 11802655.362 -4311801.155 -22173455.360 10 0 60562 30600.00000 0 11300117.335 -1578067.359 -22789833.991 10 0 60562 31500.00000 0 10990330.961 1233030.321 -22962516.022 10 0 60562 32400.00000 0 10883669.042 4052769.458 -22688168.518 10 0 60562 33300.00000 0 10978347.185 6811741.674 -21972176.264 10 0 60562 34200.00000 0 11260535.579 9442502.901 -20828533.225 10 0 60562 35100.00000 0 11704997.530 11882143.362 -19279564.916 10 0 60562 36000.00000 0 12276227.188 14074670.484 -17355487.326 10 0 60562 36900.00000 0 12930037.696 15973105.831 -15093811.318 10 0 60562 37800.00000 0 13615531.894 17541209.303 -12538604.506 10 0 60562 38700.00000 0 14277371.514 18754759.609 -9739625.392 10 0 60562 39600.00000 0 14858248.162 19602338.759 -6751347.250 10 0 60562 40500.00000 0 15301450.966 20085589.340 -3631891.335 10 0 60562 41400.00000 0 15553421.759 20218935.569 -441890.855 10 0 60562 42300.00000 0 15566189.400 20028781.739 2756691.535 10 0 60562 43200.00000 0 15299580.174 19552223.647 5901769.176 10 0 60562 44100.00000 0 14723110.872 18835328.890 8932335.972 10 0 60562 45000.00000 0 13817484.788 17931059.853 11789646.535 10 0 60562 45900.00000 0 12575627.766 16896927.821 14418349.135 10 0 60562 46800.00000 0 11003220.801 15792477.452 16767549.966 10 0 60562 47700.00000 0 9118706.841 14676707.532 18791788.826 10 0 60562 48600.00000 0 6952771.248 13605535.968 20451908.333 10 0 60562 49500.00000 0 4547317.090 12629414.739 21715801.030 10 0 60562 50400.00000 0 1953977.158 11791193.828 22559021.091 10 0 60562 51300.00000 0 -767776.535 11124322.588 22965249.940 10 0 60562 52200.00000 0 -3552848.730 10651462.776 22926607.681 10 0 60562 53100.00000 0 -6332972.031 10383570.480 22443804.864 10 0 60562 54000.00000 0 -9039293.330 10319484.788 21526131.852 10 0 60562 54900.00000 0 -11604990.084 10446040.192 20191285.729 10 0 60562 55800.00000 0 -13967809.591 10738698.199 18465037.432 10 0 60562 56700.00000 0 -16072427.261 11162672.158 16380744.546 10 0 60562 57600.00000 0 -17872527.003 11674498.804 13978717.952 10 0 60562 58500.00000 0 -19332517.779 12223991.347 11305453.265 10 0 60562 59400.00000 0 -20428815.148 12756492.670 8412740.667 10 0 60562 60300.00000 0 -21150634.227 13215334.349 5356669.276 10 0 60562 61200.00000 0 -21500260.639 13544397.982 2196544.562 10 0 60562 62100.00000 0 -21492787.696 13690670.570 -1006260.630 10 0 60562 63000.00000 0 -21155330.453 13606685.341 -4189499.217 10 0 60562 63900.00000 0 -20525749.359 13252743.789 -7291263.660 10 0 60562 64800.00000 0 -19650937.118 12598823.567 -10251196.197 10 0 60562 65700.00000 0 -18584741.006 11626089.840 -13011671.181 10 0 60562 66600.00000 0 -17385608.597 10327944.411 -15518925.555 10 0 60562 67500.00000 0 -16114056.655 8710566.362 -17724114.578 10 0 60562 68400.00000 0 -14830070.580 6792919.576 -19584271.388 10 0 60562 69300.00000 0 -13590544.742 4606225.080 -21063151.044 10 0 60562 70200.00000 0 -12446872.221 2192918.912 -22131942.116 10 0 60562 71100.00000 0 -11442786.008 -394862.033 -22769831.671 10 0 60562 72000.00000 0 -10612542.908 -3097203.670 -22964412.506 10 0 60562 72900.00000 0 -9979526.672 -5848668.137 -22711924.714 10 0 60562 73800.00000 0 -9555328.970 -8580783.298 -22017326.986 10 0 60562 74700.00000 0 -9339346.417 -11224664.676 -20894196.447 10 0 60562 75600.00000 0 -9318909.935 -13713660.679 -19364459.185 10 0 60562 76500.00000 0 -9469940.047 -15985910.986 -17457957.010 10 0 60562 77400.00000 0 -9758099.427 -17986711.624 -15211859.182 10 0 60562 78300.00000 0 -10140392.928 -19670588.490 -12669930.956 10 0 60562 79200.00000 0 -10567146.332 -21002993.392 -9881673.635 10 0 60562 80100.00000 0 -10984279.111 -21961552.595 -6901353.438 10 0 60562 81000.00000 0 -11335774.057 -22536816.888 -3786938.690 10 0 60562 81900.00000 0 -11566238.502 -22732483.175 -598966.689 10 0 60562 82800.00000 0 -11623448.119 -22565079.959 2600637.063 10 0 60562 83700.00000 0 -11460765.274 -22063131.634 5749763.729 10 0 60562 84600.00000 0 -11039329.489 -21265838.366 8787326.320 10 0 60562 85500.00000 0 -10329927.466 -20221328.499 11654441.581 99